< Cyclone 201608 2016 Season Cyclone 201610 >
Cyclone 201609 (Uriah)
General InformationTrack Information on Google MapsDetailed Wind InformationList of All Images || ResourceGoogle EarthGE AnimationAtom FeedGeoJSON
Detalied Best Track (Time Zone = UTC)
Year Month Day Hour Lat. Long. Pressure (hPa) Wind (kt) Class Image Chart
2016 2 9 00 -11.6 94.0 1005 20 2 Image --
2016 2 9 06 -11.8 94.0 1005 20 2 Image --
2016 2 9 12 -13.1 93.4 1011 20 2 Image --
2016 2 10 00 -11.5 93.9 1012 15 2 Image --
2016 2 10 06 -11.6 94.7 1005 15 2 Image --
2016 2 10 12 -11.1 93.5 1009 20 2 Image --
2016 2 10 18 -10.3 94.2 1003 20 2 Image --
2016 2 11 00 -10.4 94.8 1003 20 2 Image --
2016 2 11 06 -9.9 95.7 1003 25 2 Image --
2016 2 12 00 -10.2 97.9 1005 25 2 Image --
2016 2 12 06 -10.6 97.2 999 25 2 Image --
2016 2 12 12 -11.0 96.8 999 30 2 Image --
2016 2 12 18 -11.4 96.3 998 30 2 Image --
2016 2 13 00 -11.9 95.8 998 30 2 Image --
2016 2 13 06 -12.1 94.8 997 30 2 Image --
2016 2 13 12 -12.5 94.2 994 35 3 Image --
2016 2 13 18 -13.0 93.2 992 45 3 Image --
2016 2 14 00 -13.7 92.0 991 50 4 Image --
2016 2 14 06 -14.4 91.2 990 50 4 Image --
2016 2 14 12 -15.0 90.3 982 50 4 Image --
< Cyclone 201608 2016 Season Cyclone 201610 >

Help